Location: Ciserano
(45.5833°N, 9.6000°E)
Time: 12:33:44
(UTC+00:00)

Cosmos 2228 Rocket - Pass Details

Date: 29 November 2020
Orbit: 618 x 652 km, 82.5° (Epoch: 25 January)

Event Time Altitude Azimuth Distance (km) Brightness Sun altitude
Rises 05:43:42 0° 342° (NNW) 2,921 6.1 -9.6°
Reaches altitude 10° 05:46:05 10° 334° (NNW) 2,005 5.2 -9.2°
Maximum altitude 05:50:06 34° 269° (W) 1,020 3.7 -8.6°
Drops below altitude 10° 05:54:04 10° 204° (SSW) 1,980 5.6 -7.9°
Sets 05:56:25 0° 196° (SSW) 2,879 6.6 -7.6°
